New Castle, PA

5:45 PM EST on January 21, 2018 (GMT -0500)
New Castle Municipal

Weather History for KUCP - February, 2013

Change the Weather History Date:

Tuesday, February 19, 2013

  Actual Average Record
Temperature  
Mean Temperature 29 °F -  
Max Temperature 41 °F 42 °F 66 °F (1948)
Min Temperature 17 °F 23 °F -15 °F (1936)
Degree Days  
Heating Degree Days 36    
Moisture  
Dew Point 24 °F    
Average Humidity 81    
Maximum Humidity 93    
Minimum Humidity 60    
Precipitation  
Precipitation 0.12 in - - ()
Sea Level Pressure  
Sea Level Pressure 29.83 in    
Wind  
Wind Speed 12 mph (SW)    
Max Wind Speed 29 mph    
Max Gust Speed 38 mph    
Visibility 5 miles    
Events Fog , Rain , Snow    
Averages and records for this station are not official NWS values.
T = Trace of Precipitation, MM = Missing Value Source: NWS Daily Summary

Daily Weather History Graph

Daily Weather History Graph

Search for Another Location

Airport or City:

Trip Planner

Search our weather history database for the weather conditions in past years. The results will help you decide how hot, cold, wet, or windy it might be!

Date:

Astronomy

Feb. 19, 2013 Rise Set
Actual Time 7:10 AM EST 6:01 PM EST
Civil Twilight 6:42 AM EST 6:29 PM EST
Nautical Twilight 6:10 AM EST 7:01 PM EST
Astronomical Twilight 5:38 AM EST 7:33 PM EST
Moon 12:30 PM EST (2/19) 2:42 AM EST (2/19)
Length of Visible Light 11h 46m
Length of Day
10h 50m
Waxing Gibbous, 67% of the Moon is Illuminated
Feb 19
Waxing Gibbous
Feb 25
Full
Mar 4
Last Quarter
Mar 11
New
Mar 19
First Quarter

Hourly Weather History & Observations

Time (EST) Temp. Windchill Dew Point Humidity Pressure Visibility Wind Dir Wind Speed Gust Speed Precip Events Conditions
12:56 AM 38.8 °F 33.2 °F 26.1 °F 60% 29.89 in 10.0 mi SSE 8.1 mph - N/A   Clear
1:56 AM 39.9 °F 35.1 °F 27.1 °F 60% 29.88 in 10.0 mi SSE 6.9 mph - N/A   Partly Cloudy
2:48 AM 41.0 °F 33.1 °F 33.8 °F 76% 29.79 in 4.0 mi SSW 15.0 mph 32.2 mph 0.02 in Rain Light Rain
2:56 AM 41.0 °F 35.8 °F 34.9 °F 79% 29.86 in 4.0 mi SSW 8.1 mph 25.3 mph 0.03 in Rain Light Rain
3:36 AM 41.0 °F 33.9 °F 35.6 °F 81% 29.77 in 7.0 mi South 12.7 mph 25.3 mph 0.02 in Rain Light Rain
3:44 AM 39.2 °F 32.0 °F 35.6 °F 87% 29.75 in 5.0 mi South 11.5 mph - 0.02 in Rain Light Rain
4:56 AM 38.8 °F 32.1 °F 34.9 °F 86% 29.79 in 10.0 mi South 10.4 mph - 0.02 in Rain Light Rain
5:56 AM 37.9 °F 32.7 °F 34.9 °F 89% 29.76 in 5.0 mi Variable 6.9 mph - 0.02 in Rain Light Rain
6:56 AM 37.9 °F 30.9 °F 34.9 °F 89% 29.74 in 8.0 mi South 10.4 mph - 0.01 in Rain Light Rain
7:56 AM 37.9 °F 30.9 °F 36.0 °F 93% 29.73 in 4.0 mi South 10.4 mph - 0.01 in   Overcast
8:56 AM 38.8 °F 31.2 °F 36.9 °F 93% 29.72 in 5.0 mi South 12.7 mph - 0.00 in   Overcast
9:56 AM 39.9 °F 32.9 °F 36.9 °F 89% 29.70 in 4.0 mi South 11.5 mph 23.0 mph 0.03 in Rain Light Rain
10:13 AM 39.2 °F 32.5 °F 37.4 °F 93% 29.64 in 2.5 mi SW 10.4 mph - 0.01 in Rain Light Rain
10:20 AM 39.2 °F 32.5 °F 37.4 °F 93% 29.65 in 3.0 mi SSW 10.4 mph - 0.01 in Rain Light Rain
11:56 AM 36.9 °F 26.8 °F 31.1 °F 80% 29.74 in 10.0 mi WSW 18.4 mph - 0.00 in   Overcast
12:56 PM 32.9 °F 22.0 °F 27.1 °F 79% 29.76 in 10.0 mi WSW 17.3 mph - N/A   Overcast
1:56 PM 30.0 °F 16.0 °F 23.0 °F 75% 29.79 in 10.0 mi WSW 25.3 mph 38.0 mph 0.00 in   Overcast
2:56 PM 30.0 °F 18.3 °F 22.1 °F 72% 29.81 in 7.0 mi WSW 17.3 mph - 0.00 in Snow Light Snow
3:56 PM 30.0 °F 17.2 °F 19.0 °F 64% 29.83 in 10.0 mi SW 20.7 mph - 0.00 in   Mostly Cloudy
4:34 PM 28.4 °F 17.5 °F 21.2 °F 74% 29.78 in 5.0 mi WSW 13.8 mph - 0.00 in Snow Light Snow
4:56 PM 27.1 °F 17.5 °F 22.1 °F 81% 29.86 in 1.8 mi WSW 10.4 mph - 0.00 in Snow Light Snow
5:00 PM 26.6 °F 17.5 °F 21.2 °F 80% 29.79 in 3.0 mi SW 9.2 mph - 0.00 in Snow Light Snow
5:29 PM 28.4 °F 19.7 °F 21.2 °F 74% 29.80 in 2.5 mi SW 9.2 mph - 0.00 in Snow Light Snow
5:32 PM 26.6 °F 16.8 °F 21.2 °F 80% 29.80 in 1.0 mi SW 10.4 mph - 0.00 in Snow Light Snow
5:35 PM 26.6 °F 16.8 °F 23.0 °F 86% 29.80 in 0.8 mi WSW 10.4 mph - 0.00 in Snow Light Snow
5:39 PM 26.6 °F 14.7 °F 23.0 °F 86% 29.81 in 0.2 mi SW 15.0 mph - 0.00 in Fog , Snow Heavy Snow
5:46 PM 26.6 °F 14.7 °F 23.0 °F 86% 29.81 in 0.2 mi WSW 15.0 mph - 0.00 in Fog , Snow Light Snow
5:56 PM 26.1 °F 12.0 °F 20.1 °F 78% 29.90 in 5.0 mi WSW 20.7 mph 36.8 mph 0.00 in Snow Light Snow
6:04 PM 24.8 °F 8.1 °F 17.6 °F 74% 29.83 in 8.0 mi WSW 28.8 mph 35.7 mph 0.00 in Snow Light Snow
6:17 PM 24.8 °F 11.1 °F 15.8 °F 69% 29.84 in 10.0 mi WSW 18.4 mph - 0.00 in   Mostly Cloudy
8:23 PM 24.8 °F 9.6 °F 19.4 °F 80% 29.88 in 2.5 mi SW 23.0 mph 31.1 mph 0.00 in Snow Light Snow
8:33 PM 23.0 °F 8.3 °F 17.6 °F 80% 29.89 in 6.0 mi WSW 19.6 mph - 0.00 in Snow Light Snow
8:56 PM 21.0 °F 6.6 °F 14.0 °F 74% 29.99 in 10.0 mi WSW 17.3 mph - 0.00 in Snow Light Snow
9:56 PM 20.1 °F 8.1 °F 14.0 °F 77% 29.99 in 5.0 mi West 11.5 mph - 0.00 in Snow Light Snow
10:56 PM 19.0 °F 8.2 °F 16.2 °F 89% 30.01 in 1.0 mi West 9.2 mph - 0.00 in Snow Light Snow
11:05 PM 19.4 °F 8.6 °F 15.8 °F 86% 29.92 in 1.2 mi West 9.2 mph - 0.00 in Snow Light Snow
11:09 PM 19.4 °F 7.2 °F 15.8 °F 86% 29.92 in 1.5 mi WSW 11.5 mph - 0.00 in Snow Light Snow
11:22 PM 19.4 °F 5.0 °F 15.8 °F 86% 29.92 in 1.5 mi West 16.1 mph - 0.00 in Snow Light Snow
11:27 PM 17.6 °F 6.4 °F 15.8 °F 93% 29.93 in 1.0 mi WNW 9.2 mph - 0.00 in Snow Light Snow
11:30 PM 17.6 °F 6.4 °F 15.8 °F 93% 29.93 in 0.8 mi West 9.2 mph - 0.00 in Snow Light Snow
11:41 PM 17.6 °F 3.7 °F 14.0 °F 86% 29.93 in 1.2 mi West 13.8 mph - 0.00 in Snow Light Snow
11:45 PM 17.6 °F 5.7 °F 14.0 °F 86% 29.94 in 1.5 mi West 10.4 mph - 0.00 in Snow Light Snow
11:56 PM 18.1 °F 5.6 °F 13.1 °F 81% 30.02 in 5.0 mi West 11.5 mph - 0.00 in Snow Light Snow